Tracking 30995 objects as of 7-Jul-2025
HD Live streaming from Space Station
objects crossing your sky now

ARIANE 3 DEB

Track ARIANE 3 DEB now!


NORAD ID: 20674
Int'l Code: 1984-081E
Perigee: 710.4 km
Apogee: 33,569.5 km
Inclination: 6.8 °
Period: 598.0 minutes
Semi major axis: 23510 km
RCS: 2.5198 m2 (large)
Launch date: August 4, 1984
Source: France (FR)
Launch site: FRENCH GUIANA (FRGUI)

Note: This is SATELLITE DEBRIS
Your satellite tracking list
COSMOS 2251 DEB
Track 1 satellite(s)




NASA's NSSDC Master Catalog

Two Line Element Set (TLE):
1 20674U 84081E   25187.53449373 -.00000130  00000-0  33854-3 0  9992
2 20674   6.7568 163.0745 6988040 332.3536 223.7398  2.40822705289170
Source of the keplerian elements: AFSPC